Time,TemperatureF,DewpointF,PressureIn,WindDirection,WindDirectionDegrees,WindSpeedMPH,WindSpeedGustMPH,Humidity,HourlyPrecipIn,Conditions,Clouds,dailyrainin,SoftwareType,DateUTC
2013-01-16 00:02:00,18.0,11.0,-100.00,East,85,1.0,4.0,75,-99.99,,,-99.99,,2013-01-16 06:02:00,
2013-01-16 00:22:00,18.0,11.0,-100.00,East,85,1.0,4.0,75,-99.99,,,-99.99,,2013-01-16 06:22:00,
2013-01-16 00:33:00,18.0,11.0,-100.00,East,85,1.0,4.0,75,-99.99,,,-99.99,,2013-01-16 06:33:00,
2013-01-16 00:43:00,18.0,11.0,-100.00,East,85,1.0,4.0,75,-99.99,,,-99.99,,2013-01-16 06:43:00,
2013-01-16 00:53:00,18.0,11.0,-100.00,East,85,1.0,4.0,75,-99.99,,,-99.99,,2013-01-16 06:53:00,
2013-01-16 01:02:00,18.0,11.0,-100.00,East,90,4.0,7.0,75,-99.99,,,-99.99,,2013-01-16 07:02:00,
2013-01-16 01:22:00,18.0,11.0,-100.00,East,90,4.0,7.0,75,-99.99,,,-99.99,,2013-01-16 07:22:00,
2013-01-16 01:33:00,18.0,11.0,-100.00,East,90,4.0,7.0,75,-99.99,,,-99.99,,2013-01-16 07:33:00,
2013-01-16 01:42:00,18.0,11.0,-100.00,East,90,4.0,7.0,75,-99.99,,,-99.99,,2013-01-16 07:42:00,
2013-01-16 01:52:00,18.0,11.0,-100.00,East,90,4.0,7.0,75,-99.99,,,-99.99,,2013-01-16 07:52:00,
2013-01-16 02:01:00,18.0,11.0,-100.00,East,100,6.0,10.0,73,-99.99,,,-99.99,,2013-01-16 08:01:00,
2013-01-16 02:23:00,18.0,11.0,-100.00,East,100,6.0,10.0,73,-99.99,,,-99.99,,2013-01-16 08:23:00,
2013-01-16 02:32:00,18.0,11.0,-100.00,East,100,6.0,10.0,73,-99.99,,,-99.99,,2013-01-16 08:32:00,
2013-01-16 02:42:00,18.0,11.0,-100.00,East,100,6.0,10.0,73,-99.99,,,-99.99,,2013-01-16 08:42:00,
2013-01-16 02:53:00,18.0,11.0,-100.00,East,100,6.0,10.0,73,-99.99,,,-99.99,,2013-01-16 08:53:00,
2013-01-16 03:02:00,18.0,10.0,-100.00,East,100,7.0,12.0,70,-99.99,,,-99.99,,2013-01-16 09:02:00,
2013-01-16 03:22:00,18.0,10.0,-100.00,East,100,7.0,12.0,70,-99.99,,,-99.99,,2013-01-16 09:22:00,
2013-01-16 03:33:00,18.0,10.0,-100.00,East,100,7.0,12.0,70,-99.99,,,-99.99,,2013-01-16 09:33:00,
2013-01-16 03:43:00,18.0,10.0,-100.00,East,100,7.0,12.0,70,-99.99,,,-99.99,,2013-01-16 09:43:00,
2013-01-16 03:53:00,18.0,10.0,-100.00,East,100,7.0,12.0,70,-99.99,,,-99.99,,2013-01-16 09:53:00,
2013-01-16 04:02:00,18.0,10.0,-100.00,East,100,9.0,12.0,70,-99.99,,,-99.99,,2013-01-16 10:02:00,
2013-01-16 04:22:00,18.0,10.0,-100.00,East,100,9.0,12.0,70,-99.99,,,-99.99,,2013-01-16 10:22:00,
2013-01-16 04:33:00,18.0,10.0,-100.00,East,100,9.0,12.0,70,-99.99,,,-99.99,,2013-01-16 10:33:00,
2013-01-16 04:43:00,18.0,10.0,-100.00,East,100,9.0,12.0,70,-99.99,,,-99.99,,2013-01-16 10:43:00,
2013-01-16 04:53:00,18.0,10.0,-100.00,East,100,9.0,12.0,70,-99.99,,,-99.99,,2013-01-16 10:53:00,
2013-01-16 05:02:00,18.0,9.0,-100.00,ESE,105,9.0,15.0,67,-99.99,,,-99.99,,2013-01-16 11:02:00,
2013-01-16 05:23:00,18.0,9.0,-100.00,ESE,105,9.0,15.0,67,-99.99,,,-99.99,,2013-01-16 11:23:00,
2013-01-16 05:33:00,18.0,9.0,-100.00,ESE,105,9.0,15.0,67,-99.99,,,-99.99,,2013-01-16 11:33:00,
2013-01-16 05:43:00,18.0,9.0,-100.00,ESE,105,9.0,15.0,67,-99.99,,,-99.99,,2013-01-16 11:43:00,
2013-01-16 05:53:00,18.0,9.0,-100.00,ESE,105,9.0,15.0,67,-99.99,,,-99.99,,2013-01-16 11:53:00,
2013-01-16 06:02:00,18.0,9.0,-100.00,East,100,9.0,14.0,67,-99.99,,,-99.99,,2013-01-16 12:02:00,
2013-01-16 06:22:00,18.0,9.0,-100.00,East,100,9.0,14.0,67,-99.99,,,-99.99,,2013-01-16 12:22:00,
2013-01-16 06:33:00,18.0,9.0,-100.00,East,100,9.0,14.0,67,-99.99,,,-99.99,,2013-01-16 12:33:00,
2013-01-16 06:43:00,18.0,9.0,-100.00,East,100,9.0,14.0,67,-99.99,,,-99.99,,2013-01-16 12:43:00,
2013-01-16 06:53:00,18.0,9.0,-100.00,East,100,9.0,14.0,67,-99.99,,,-99.99,,2013-01-16 12:53:00,
2013-01-16 07:02:00,19.0,9.0,-100.00,ESE,105,11.0,18.0,66,-99.99,,,-99.99,,2013-01-16 13:02:00,
2013-01-16 07:23:00,19.0,9.0,-100.00,ESE,105,11.0,18.0,66,-99.99,,,-99.99,,2013-01-16 13:23:00,
2013-01-16 07:33:00,19.0,9.0,-100.00,ESE,105,11.0,18.0,66,-99.99,,,-99.99,,2013-01-16 13:33:00,
2013-01-16 07:43:00,19.0,9.0,-100.00,ESE,105,11.0,18.0,66,-99.99,,,-99.99,,2013-01-16 13:43:00,
2013-01-16 07:53:00,19.0,9.0,-100.00,ESE,105,11.0,18.0,66,-99.99,,,-99.99,,2013-01-16 13:53:00,
2013-01-16 08:02:00,21.0,11.0,-100.00,East,100,11.0,15.0,65,-99.99,,,-99.99,,2013-01-16 14:02:00,
2013-01-16 08:23:00,21.0,11.0,-100.00,East,100,11.0,15.0,65,-99.99,,,-99.99,,2013-01-16 14:23:00,
2013-01-16 08:33:00,21.0,11.0,-100.00,East,100,11.0,15.0,65,-99.99,,,-99.99,,2013-01-16 14:33:00,
2013-01-16 08:43:00,21.0,11.0,-100.00,East,100,11.0,15.0,65,-99.99,,,-99.99,,2013-01-16 14:43:00,
2013-01-16 08:53:00,21.0,11.0,-100.00,East,100,11.0,15.0,65,-99.99,,,-99.99,,2013-01-16 14:53:00,
2013-01-16 09:02:00,24.0,14.0,-100.00,ESE,105,9.0,17.0,64,-99.99,,,-99.99,,2013-01-16 15:02:00,
2013-01-16 09:23:00,24.0,14.0,-100.00,ESE,105,9.0,17.0,64,-99.99,,,-99.99,,2013-01-16 15:23:00,
2013-01-16 09:33:00,24.0,14.0,-100.00,ESE,105,9.0,17.0,64,-99.99,,,-99.99,,2013-01-16 15:33:00,
2013-01-16 09:43:00,24.0,14.0,-100.00,ESE,105,9.0,17.0,64,-99.99,,,-99.99,,2013-01-16 15:43:00,
2013-01-16 09:53:00,24.0,14.0,-100.00,ESE,105,9.0,17.0,64,-99.99,,,-99.99,,2013-01-16 15:53:00,
2013-01-16 10:01:00,27.0,15.0,-100.00,ESE,105,14.0,22.0,59,-99.99,,,-99.99,,2013-01-16 16:01:00,
2013-01-16 10:23:00,27.0,15.0,-100.00,ESE,105,14.0,22.0,59,-99.99,,,-99.99,,2013-01-16 16:23:00,
2013-01-16 10:33:00,27.0,15.0,-100.00,ESE,105,14.0,22.0,59,-99.99,,,-99.99,,2013-01-16 16:33:00,
2013-01-16 10:43:00,27.0,15.0,-100.00,ESE,105,14.0,22.0,59,-99.99,,,-99.99,,2013-01-16 16:43:00,
2013-01-16 10:53:00,27.0,15.0,-100.00,ESE,105,14.0,22.0,59,-99.99,,,-99.99,,2013-01-16 16:53:00,
2013-01-16 11:02:00,30.0,16.0,-100.00,ESE,110,9.0,20.0,57,-99.99,,,-99.99,,2013-01-16 17:02:00,
2013-01-16 11:23:00,30.0,16.0,-100.00,ESE,110,9.0,20.0,57,-99.99,,,-99.99,,2013-01-16 17:23:00,
2013-01-16 11:33:00,30.0,16.0,-100.00,ESE,110,9.0,20.0,57,-99.99,,,-99.99,,2013-01-16 17:33:00,
2013-01-16 11:44:00,30.0,16.0,-100.00,ESE,110,9.0,20.0,57,-99.99,,,-99.99,,2013-01-16 17:44:00,
2013-01-16 11:53:00,30.0,16.0,-100.00,ESE,110,9.0,20.0,57,-99.99,,,-99.99,,2013-01-16 17:53:00,
2013-01-16 12:02:00,30.0,18.0,-100.00,ESE,110,10.0,18.0,61,-99.99,,,-99.99,,2013-01-16 18:02:00,
2013-01-16 12:23:00,30.0,18.0,-100.00,ESE,110,10.0,18.0,61,-99.99,,,-99.99,,2013-01-16 18:23:00,
2013-01-16 12:33:00,30.0,18.0,-100.00,ESE,110,10.0,18.0,61,-99.99,,,-99.99,,2013-01-16 18:33:00,
2013-01-16 12:43:00,30.0,18.0,-100.00,ESE,110,10.0,18.0,61,-99.99,,,-99.99,,2013-01-16 18:43:00,
2013-01-16 12:53:00,30.0,18.0,-100.00,ESE,110,10.0,18.0,61,-99.99,,,-99.99,,2013-01-16 18:53:00,
2013-01-16 13:02:00,31.0,21.0,-100.00,ESE,115,7.0,13.0,66,-99.99,,,-99.99,,2013-01-16 19:02:00,
2013-01-16 13:23:00,31.0,21.0,-100.00,ESE,115,7.0,13.0,66,-99.99,,,-99.99,,2013-01-16 19:23:00,
2013-01-16 13:33:00,31.0,21.0,-100.00,ESE,115,7.0,13.0,66,-99.99,,,-99.99,,2013-01-16 19:33:00,
2013-01-16 13:43:00,31.0,21.0,-100.00,ESE,115,7.0,13.0,66,-99.99,,,-99.99,,2013-01-16 19:43:00,
2013-01-16 13:53:00,31.0,21.0,-100.00,ESE,115,7.0,13.0,66,-99.99,,,-99.99,,2013-01-16 19:53:00,
2013-01-16 14:01:00,32.0,24.0,-100.00,ESE,115,6.0,11.0,73,-99.99,,,-99.99,,2013-01-16 20:01:00,
2013-01-16 14:23:00,32.0,24.0,-100.00,ESE,115,6.0,11.0,73,-99.99,,,-99.99,,2013-01-16 20:23:00,
2013-01-16 14:33:00,32.0,24.0,-100.00,ESE,115,6.0,11.0,73,-99.99,,,-99.99,,2013-01-16 20:33:00,
2013-01-16 14:43:00,32.0,24.0,-100.00,ESE,115,6.0,11.0,73,-99.99,,,-99.99,,2013-01-16 20:43:00,
2013-01-16 14:53:00,32.0,24.0,-100.00,ESE,115,6.0,11.0,73,-99.99,,,-99.99,,2013-01-16 20:53:00,
2013-01-16 15:02:00,32.0,25.0,-100.00,ESE,120,7.0,13.0,75,-99.99,,,-99.99,,2013-01-16 21:02:00,
2013-01-16 15:23:00,32.0,25.0,-100.00,ESE,120,7.0,13.0,75,-99.99,,,-99.99,,2013-01-16 21:23:00,
2013-01-16 15:33:00,32.0,25.0,-100.00,ESE,120,7.0,13.0,75,-99.99,,,-99.99,,2013-01-16 21:33:00,
2013-01-16 15:43:00,32.0,25.0,-100.00,ESE,120,7.0,13.0,75,-99.99,,,-99.99,,2013-01-16 21:43:00,
2013-01-16 15:53:00,32.0,25.0,-100.00,ESE,120,7.0,13.0,75,-99.99,,,-99.99,,2013-01-16 21:53:00,
2013-01-16 16:02:00,33.0,26.0,-100.00,ESE,120,4.0,9.0,76,-99.99,,,-99.99,,2013-01-16 22:02:00,
2013-01-16 16:23:00,33.0,26.0,-100.00,ESE,120,4.0,9.0,76,-99.99,,,-99.99,,2013-01-16 22:23:00,
2013-01-16 16:33:00,33.0,26.0,-100.00,ESE,120,4.0,9.0,76,-99.99,,,-99.99,,2013-01-16 22:33:00,
2013-01-16 16:43:00,33.0,26.0,-100.00,ESE,120,4.0,9.0,76,-99.99,,,-99.99,,2013-01-16 22:43:00,
2013-01-16 16:53:00,33.0,26.0,-100.00,ESE,120,4.0,9.0,76,-99.99,,,-99.99,,2013-01-16 22:53:00,
2013-01-16 17:02:00,34.0,27.0,-100.00,ESE,115,3.0,7.0,76,-99.99,,,-99.99,,2013-01-16 23:02:00,
2013-01-16 17:23:00,34.0,27.0,-100.00,ESE,115,3.0,7.0,76,-99.99,,,-99.99,,2013-01-16 23:23:00,
2013-01-16 17:33:00,34.0,27.0,-100.00,ESE,115,3.0,7.0,76,-99.99,,,-99.99,,2013-01-16 23:33:00,
2013-01-16 17:43:00,34.0,27.0,-100.00,ESE,115,3.0,7.0,76,-99.99,,,-99.99,,2013-01-16 23:43:00,
2013-01-16 17:53:00,34.0,27.0,-100.00,ESE,115,3.0,7.0,76,-99.99,,,-99.99,,2013-01-16 23:53:00,
2013-01-16 18:22:00,33.0,27.0,-100.00,ESE,110,3.0,5.0,76,-99.99,,,-99.99,,2013-01-17 00:22:00,
2013-01-16 18:33:00,33.0,27.0,-100.00,ESE,110,3.0,5.0,76,-99.99,,,-99.99,,2013-01-17 00:33:00,
2013-01-16 18:42:00,33.0,27.0,-100.00,ESE,110,3.0,5.0,76,-99.99,,,-99.99,,2013-01-17 00:42:00,
2013-01-16 18:52:00,33.0,27.0,-100.00,ESE,110,3.0,5.0,76,-99.99,,,-99.99,,2013-01-17 00:52:00,
2013-01-16 19:02:00,33.0,27.0,-100.00,ESE,110,3.0,5.0,76,-99.99,,,-99.99,,2013-01-17 01:02:00,
2013-01-16 19:22:00,34.0,27.0,-100.00,ENE,75,1.0,3.0,77,-99.99,,,-99.99,,2013-01-17 01:22:00,
2013-01-16 19:33:00,34.0,27.0,-100.00,ENE,75,1.0,3.0,77,-99.99,,,-99.99,,2013-01-17 01:33:00,
2013-01-16 19:43:00,34.0,27.0,-100.00,ENE,75,1.0,3.0,77,-99.99,,,-99.99,,2013-01-17 01:43:00,
2013-01-16 19:52:00,34.0,27.0,-100.00,ENE,75,1.0,3.0,77,-99.99,,,-99.99,,2013-01-17 01:52:00,
2013-01-16 20:02:00,33.0,27.0,-100.00,ESE,120,0.0,2.0,78,-99.99,,,-99.99,,2013-01-17 02:02:00,
2013-01-16 20:22:00,33.0,27.0,-100.00,ESE,120,0.0,2.0,78,-99.99,,,-99.99,,2013-01-17 02:22:00,
2013-01-16 20:32:00,33.0,27.0,-100.00,ESE,120,0.0,2.0,78,-99.99,,,-99.99,,2013-01-17 02:32:00,
2013-01-16 20:43:00,33.0,27.0,-100.00,ESE,120,0.0,2.0,78,-99.99,,,-99.99,,2013-01-17 02:43:00,
2013-01-16 20:52:00,33.0,27.0,-100.00,ESE,120,0.0,2.0,78,-99.99,,,-99.99,,2013-01-17 02:52:00,
2013-01-16 21:02:00,33.0,27.0,-100.00,SE,125,1.0,3.0,80,-99.99,,,-99.99,,2013-01-17 03:02:00,
2013-01-16 21:22:00,33.0,27.0,-100.00,SE,125,1.0,3.0,80,-99.99,,,-99.99,,2013-01-17 03:22:00,
2013-01-16 21:33:00,33.0,27.0,-100.00,SE,125,1.0,3.0,80,-99.99,,,-99.99,,2013-01-17 03:33:00,
2013-01-16 21:43:00,33.0,27.0,-100.00,SE,125,1.0,3.0,80,-99.99,,,-99.99,,2013-01-17 03:43:00,
2013-01-16 21:52:00,33.0,27.0,-100.00,SE,125,1.0,3.0,80,-99.99,,,-99.99,,2013-01-17 03:52:00,
2013-01-16 22:02:00,33.0,27.0,-100.00,SE,145,2.0,6.0,80,-99.99,,,-99.99,,2013-01-17 04:02:00,
2013-01-16 22:23:00,33.0,27.0,-100.00,SE,145,2.0,6.0,80,-99.99,,,-99.99,,2013-01-17 04:23:00,
2013-01-16 22:33:00,33.0,27.0,-100.00,SE,145,2.0,6.0,80,-99.99,,,-99.99,,2013-01-17 04:33:00,
2013-01-16 22:43:00,33.0,27.0,-100.00,SE,145,2.0,6.0,80,-99.99,,,-99.99,,2013-01-17 04:43:00,
2013-01-16 22:52:00,33.0,27.0,-100.00,SE,145,2.0,6.0,80,-99.99,,,-99.99,,2013-01-17 04:52:00,
2013-01-16 23:02:00,31.0,20.0,-100.00,SE,145,4.0,11.0,66,-99.99,,,-99.99,,2013-01-17 05:02:00,
2013-01-16 23:22:00,31.0,20.0,-100.00,SE,145,4.0,11.0,66,-99.99,,,-99.99,,2013-01-17 05:22:00,
2013-01-16 23:33:00,31.0,20.0,-100.00,SE,145,4.0,11.0,66,-99.99,,,-99.99,,2013-01-17 05:33:00,
2013-01-16 23:43:00,31.0,20.0,-100.00,SE,145,4.0,11.0,66,-99.99,,,-99.99,,2013-01-17 05:43:00,
2013-01-16 23:53:00,31.0,20.0,-100.00,SE,145,4.0,11.0,66,-99.99,,,-99.99,,2013-01-17 05:53:00,